Weather History for Little Rock AFB, AR

Change the Weather History Date:

Wednesday, September 19, 2012

  Actual Average Record
Temperature  
Mean Temperature 62 °F -  
Max Temperature 77 °F 84 °F 100 °F (1997)
Min Temperature 47 °F 61 °F 41 °F (1981)
Degree Days  
Heating Degree Days 3    
Growing Degree Days 12 (Base 50)    
Moisture  
Dew Point 50 °F    
Average Humidity 69    
Maximum Humidity 93    
Minimum Humidity 35    
Precipitation  
Precipitation 0.00 in - - ()
Sea Level Pressure  
Sea Level Pressure 30.12 in    
Wind  
Wind Speed 2 mph (SSE)    
Max Wind Speed 7 mph    
Max Gust Speed -    
Visibility 10 miles    
Events      
Averages and records for this station are not official NWS values.
T = Trace of Precipitation, MM = Missing Value Source: NWS Daily Summary

Daily Weather History Graph

Daily Weather History Graph

Search for Another Location

Airport:

Trip Planner

Search our weather history database for the weather conditions in past years. The results will help you decide how hot, cold, wet, or windy it might be!

Date:

Astronomy

Sep. 19, 2012 Rise Set
Actual Time 6:54 AM CDT 7:08 PM CDT
Civil Twilight 6:29 AM CDT 7:34 PM CDT
Nautical Twilight 5:59 AM CDT 8:03 PM CDT
Astronomical Twilight 5:29 AM CDT 8:33 PM CDT
Moon 10:53 AM CDT (9/19) 9:31 PM CDT (9/19)
Length of Visible Light 13h 04m
Length of Day
12h 14m
Waxing Crescent, 17% of the Moon is Illuminated
Sep 19
Waxing Crescent
Sep 22
First Quarter
Sep 29
Full
Oct 8
Last Quarter
Oct 15
New

Hourly Weather History & Observations

Time (CDT) Temp. Dew Point Humidity Pressure Visibility Wind Dir Wind Speed Gust Speed Precip Events Conditions
12:55 AM 53.4 °F 49.5 °F 86% 30.10 in 10.0 mi Calm Calm - N/A   Clear
1:55 AM 52.7 °F 48.7 °F 86% 30.10 in 10.0 mi Calm Calm - N/A   Clear
2:55 AM 50.9 °F 48.0 °F 90% 30.10 in 10.0 mi West 3.5 mph - N/A   Clear
3:55 AM 50.2 °F 47.7 °F 91% 30.11 in 10.0 mi West 4.6 mph - N/A   Clear
4:55 AM 49.3 °F 46.8 °F 91% 30.12 in 10.0 mi Calm Calm - N/A   Clear
5:55 AM 48.9 °F 46.8 °F 92% 30.14 in 10.0 mi Calm Calm - N/A   Clear
6:55 AM 47.8 °F 46.0 °F 93% 30.15 in 10.0 mi Calm Calm - N/A   Clear
7:55 AM 51.6 °F 47.3 °F 85% 30.17 in 10.0 mi Calm Calm - N/A   Clear
8:55 AM 58.5 °F 49.8 °F 73% 30.17 in 10.0 mi East 4.6 mph - N/A   Clear
9:55 AM 64.9 °F 49.8 °F 58% 30.18 in 10.0 mi ESE 4.6 mph - N/A   Clear
10:55 AM 68.4 °F 49.8 °F 51% 30.19 in 10.0 mi South 5.8 mph - N/A   Clear
11:55 AM 70.2 °F 50.0 °F 49% 30.19 in 10.0 mi Variable 6.9 mph - N/A   Clear
12:55 PM 72.7 °F 50.4 °F 45% 30.17 in 10.0 mi Variable 5.8 mph - N/A   Clear
1:55 PM 73.9 °F 45.9 °F 37% 30.14 in 10.0 mi Calm Calm - N/A   Clear
2:55 PM 75.7 °F 47.1 °F 36% 30.11 in 10.0 mi South 4.6 mph - N/A   Clear
3:55 PM 76.8 °F 47.5 °F 35% 30.09 in 10.0 mi East 4.6 mph - N/A   Clear
4:55 PM 77.5 °F 48.9 °F 36% 30.08 in 10.0 mi SE 5.8 mph - N/A   Clear
5:55 PM 76.5 °F 48.9 °F 38% 30.06 in 10.0 mi Calm Calm - N/A   Clear
6:55 PM 72.1 °F 53.6 °F 52% 30.06 in 10.0 mi Calm Calm - N/A   Clear
7:55 PM 63.0 °F 56.8 °F 80% 30.07 in 10.0 mi Calm Calm - N/A   Clear
8:55 PM 60.4 °F 54.7 °F 81% 30.09 in 10.0 mi Calm Calm - N/A   Clear
9:55 PM 58.6 °F 54.7 °F 87% 30.09 in 10.0 mi Calm Calm - N/A   Clear
10:55 PM 57.6 °F 54.5 °F 90% 30.10 in 10.0 mi Calm Calm - N/A   Clear
11:55 PM 56.5 °F 53.8 °F 91% 30.09 in 10.0 mi Calm Calm - N/A   Clear